Location: Corticella
(44.5500°N, 11.3667°E)
Time: 02:49:48
(UTC+00:00)

Daily predictions for brighter satellites

Satellite Brightness Start Highest point End
(mag) Time Altitude Azimuth Time Altitude Azimuth Time Altitude Azimuth
ADEOS II 4.3 00:02:08 10° NE 00:05:05 15° E 00:07:44 11° ESE
Cosmos 1867 4.2 00:05:01 34° WSW 00:07:03 51° NW 00:12:26 10° NNE
Cosmos 1674 Rocket 3.9 00:06:55 50° W 00:07:04 50° WNW 00:11:18 10° N
NOSS 2-2 (D) 4.3 00:02:23 10° NW 00:07:35 89° WSW 00:11:38 27° SE
Cosmos 1461 4.1 00:03:51 10° NW 00:06:31 32° WNW 00:06:31 32° WNW
Cosmos 2298 Rocket 4.0 00:07:41 57° SW 00:08:46 80° WNW 00:14:06 10° NNE
Cosmos 1674 4.3 00:10:51 25° WNW 00:10:51 25° WNW 00:13:47 10° NNW
USA 306 2.7 00:11:52 82° E 00:11:52 82° E 00:15:56 10° NE
Thor Agena Rocket 3.8 00:09:00 10° NNE 00:14:15 62° ESE 00:15:34 47° SSE
USA 307 2.7 00:15:20 77° ESE 00:15:20 77° ESE 00:19:23 10° NE
ATLAS CENTAUR R/B 3.7 00:12:23 10° WNW 00:13:59 15° W 00:13:59 15° W
SL-16 R/B 3.4 00:16:08 25° SE 00:17:52 29° ESE 00:22:42 10° NE
ERBS 3.6 00:22:52 33° ENE 00:22:52 33° ENE 00:24:44 10° NE
Cosmos 1980 3.6 00:20:38 50° SSW 00:22:11 84° WNW 00:27:53 10° NNE
Cosmos 1378 Rocket 4.4 00:22:19 36° W 00:22:43 37° WNW 00:26:50 10° N
Cosmos 2333 Rocket 4.1 00:19:42 12° W 00:23:26 22° NW 00:27:48 10° N
ATLAS 5 CENTAUR R/B 2.7 00:14:04 10° NW 00:24:06 54° WSW 00:24:39 51° SW
Cosmos 1455 Rocket 3.5 00:20:33 10° N 00:24:58 56° ENE 00:26:09 42° SE
CZ-4C R/B 3.3 00:17:48 10° NW 00:24:58 49° WSW 00:27:53 36° SSW
Cosmos 332 Rocket 3.7 00:28:23 58° S 00:29:15 78° ESE 00:34:04 10° NNE
NOSS 0 Rocket 4.2 00:29:22 36° SW 00:31:53 61° WNW 00:38:05 10° NNE
USA 32 4.1 00:35:14 47° SW 00:36:32 64° W 00:41:46 10° N
Meteor 1-24 Rocket 4.1 00:34:53 33° SSE 00:37:10 54° E 00:42:29 10° NNE
Meteor 2-10 Rocket 3.6 00:33:46 10° NNW 00:39:27 78° W 00:41:17 43° S
Cosmos 1975 Rocket 3.0 00:39:39 59° S 00:40:28 85° E 00:44:57 10° N
Cosmos 839 Rocket 4.3 00:38:51 10° NW 00:45:12 59° WSW 00:49:12 28° S
USA 308 3.1 00:44:46 46° W 00:45:49 65° NNW 00:49:59 10° NE
Cosmos 2219 Rocket 4.2 00:42:56 10° W 00:46:48 19° NW 00:50:45 10° N
MOS 1 Rocket 4.4 00:44:06 17° SE 00:46:56 36° ENE 00:50:54 10° N
Cosmos 1025 Rocket 2.9 00:47:03 55° S 00:47:56 82° E 00:52:16 10° N
Cosmos 1455 3.4 00:47:34 10° N 00:51:02 36° ENE 00:52:38 24° SE
Cosmos 1269 Rocket 4.1 00:46:38 10° NNW 00:51:57 78° ENE 00:55:07 25° SSE
GP-B 3.6 00:53:08 10° N 00:57:21 44° W 00:58:07 40° WSW
Meteor 2-5 Rocket 3.7 00:55:37 37° S 00:58:03 88° WNW 01:03:45 10° N
Lacrosse 5 1.9 00:58:31 43° SSW 01:00:04 67° SE 01:05:09 10° NE
CZ-2D R/B 2.1 00:54:48 10° NNE 01:00:13 81° ESE 01:02:28 36° S
Cosmos 1300 3.9 00:58:31 10° NNW 01:01:27 27° W 01:01:27 27° W
USA 267 4.2 01:02:15 25° WSW 01:02:15 25° WSW 01:07:03 10° WNW
USA 305 3.9 01:07:08 22° W 01:09:25 42° NNW 01:13:24 10° NE
Cosmos 1544 Rocket 3.5 01:06:53 10° N 01:11:20 89° NW 01:13:10 35° S
USA 229 DEB 4.5 01:05:24 10° NW 01:12:06 37° WSW 01:15:06 28° SSW
USA 229 4.5 01:05:29 10° NW 01:12:12 37° WSW 01:15:15 28° SSW
Cosmos 2237 Rocket 3.2 01:11:28 23° WSW 01:14:21 37° NW 01:19:39 10° NNE
SL-16 R/B 2.5 01:14:42 21° S 01:19:03 78° WSW 01:25:20 10° NNW
AQUA 3.8 01:14:45 10° NNE 01:19:32 80° ESE 01:21:49 31° S
Helios 1A 3.6 01:16:52 15° SSE 01:20:14 54° ENE 01:24:22 10° N
Lacrosse 5 rocket 1.3 01:21:54 44° SSW 01:22:54 64° SE 01:26:55 10° NE
SAR-Lupe-2 3.5 01:19:30 10° NNE 01:23:06 84° ESE 01:24:09 44° S
SME Rocket 4.0 01:24:35 29° WSW 01:25:07 30° W 01:29:19 10° NNW
Resurs 1-4 Rocket 2.4 01:24:11 10° N 01:29:19 55° WNW 01:31:56 28° SW
Cosmos 2074 Rocket 4.0 01:23:20 10° NNW 01:29:36 71° W 01:33:59 21° S
Cosmos 1943 Rocket 2.2 01:28:57 10° NNW 01:34:35 64° WSW 01:39:28 14° S
Cosmos 2297 3.6 01:28:48 10° NNW 01:34:35 81° WSW 01:40:18 10° SSE
Cosmos 1703 3.7 01:35:52 23° SSE 01:38:08 59° E 01:42:01 10° NNE
CRYOSAT 2 4.4 01:38:47 25° S 01:41:36 65° W 01:46:28 10° N
Cosmos 2184 Rocket 4.1 01:38:20 10° NNW 01:44:26 57° W 01:48:45 20° SSW
Cosmos 2278 Rocket 3.9 01:42:09 10° WNW 01:45:02 14° W 01:45:23 14° W
ADEOS II 2.1 01:40:04 10° N 01:45:19 75° WNW 01:48:40 23° SSW
IDEFIX/ARIANE 42P 2.6 01:40:57 10° NNE 01:46:15 87° WNW 01:49:52 21° SSW
Cosmos 1610 Rocket 4.4 01:42:08 10° N 01:48:19 80° W 01:54:08 11° S
Cosmos 292 Rocket 3.7 01:48:10 24° SSW 01:51:06 88° WNW 01:55:55 10° NNE
USA 307 4.5 01:51:26 10° W 01:55:09 30° NNW 01:58:53 10° NE
Meteor 1-21 Rocket 4.5 01:51:34 13° S 01:56:37 68° E 02:02:09 10° NNE
NPP 4.4 01:52:14 10° N 01:57:14 40° WNW 02:00:35 19° SW
Cosmos 2369 Rocket 2.3 01:54:16 10° NNW 01:59:54 82° ENE 02:05:29 10° SSE
SL-16 R/B 2.8 01:58:00 19° WSW 02:01:46 45° WNW 02:07:12 10° NNE
IRS-1D 3.7 01:57:53 10° NNE 02:03:15 81° ESE 02:07:54 14° S
Cosmos 2228 2.9 01:58:56 10° N 02:03:19 80° W 02:07:33 10° S
Cosmos 614 Rocket 4.1 01:58:20 10° NNW 02:03:24 56° WSW 02:08:29 10° S
EO 1 Del DPAF 3.4 02:00:03 10° N 02:03:28 48° WNW 02:05:17 24° SW
Meteor 1-28 Rocket 3.8 02:03:36 23° SSW 02:05:26 38° W 02:08:56 10° NNW
Cosmos 2251 Rocket 3.5 02:00:11 10° NNW 02:05:28 88° WSW 02:10:46 10° SSE
Cosmos 1656 Rocket 3.8 02:03:51 10° NNW 02:09:17 77° ENE 02:14:42 10° SSE
COSMOS 2455 2.9 02:04:48 19° SW 02:09:18 72° WNW 02:15:21 10° NNE
Cosmos 1536 Rocket 4.3 02:08:03 20° SW 02:10:36 38° WNW 02:14:43 10° N
COSMOS 2441 4.4 02:13:41 10° N 02:18:33 71° WNW 02:22:48 13° SSW
Cosmos 1408 4.2 02:16:24 10° SSE 02:19:40 32° E 02:22:55 10° NNE
Nadezhda 1 Rocket 4.5 02:15:05 16° SW 02:20:01 46° WNW 02:26:04 10° N
MSX 4.0 02:17:35 10° N 02:23:15 59° WNW 02:28:25 13° SSW
Cosmos 1603 3.9 02:19:47 11° SSW 02:25:08 73° ESE 02:30:49 10° NNE
MOS 1 Rocket 4.5 02:23:22 16° SW 02:25:19 21° W 02:28:33 10° NW
Cosmos 1455 4.0 02:24:03 10° NW 02:26:11 15° W 02:27:22 13° WSW
Cosmos 1271 Rocket 3.9 02:27:02 10° NW 02:30:13 25° W 02:32:44 14° SW
Cosmos 1606 Rocket 3.7 02:30:08 10° NNW 02:34:28 56° W 02:38:44 10° S
ALOS 2.9 02:33:04 10° NNE 02:37:40 56° E 02:42:15 10° S
CZ-2D R/B 4.0 02:36:21 10° NNW 02:39:32 16° WNW 02:42:42 10° W
CZ-2C R/B 3.1 02:34:46 10° NNE 02:39:51 59° E 02:44:45 10° S
Lacrosse 5 3.2 02:38:45 10° W 02:43:23 33° NNW 02:48:01 10° NE
Helios 1B rocket 2.4 02:40:24 10° N 02:44:28 73° WNW 02:48:30 10° SSW
Cosmos 2366 rocket 4.0 02:40:37 10° N 02:46:47 79° W 02:52:58 10° S
Cosmos 2341 Rocket 4.2 02:41:03 10° NNW 02:47:16 55° W 02:53:27 10° SSW
BREEZE-M DEB (TANK) 2.3 02:47:27 10° WSW 02:51:58 78° SSE 02:54:12 10° ENE
Meteor 1-11 4.4 02:47:27 10° S 02:53:17 89° W 02:59:06 10° N
Cosmos 407 Rocket 3.6 02:48:08 10° NNW 02:53:23 61° WSW 02:58:32 10° S
SL-8 Rocket 4.2 02:47:49 10° NNW 02:54:01 59° W 03:00:11 10° S
Okean 1-7 Rocket 4.2 02:50:34 10° S 02:54:54 60° E 02:59:16 10° NNE
Cosmos 1371 Rocket 4.0 02:50:04 10° SSW 02:55:14 88° ESE 03:00:27 10° NNE
Cosmos 1943 3.5 02:51:03 10° SW 02:56:40 59° WNW 03:02:19 10° NNE
Genesis I 3.2 02:57:05 10° NW 03:01:07 64° WSW 03:05:02 10° SSE
Lacrosse 5 rocket 3.0 02:58:53 10° W 03:02:16 26° NNW 03:05:50 10° NNE
Meteor 1-29 3.1 03:00:17 10° NNE 03:03:32 69° ESE 03:06:47 10° S
SL-16 R/B 4.3 03:01:17 10° WSW 03:03:37 12° W 03:05:58 10° WNW
Cosmos 1140 Rocket 3.8 02:59:16 10° NNW 03:04:16 46° WSW 03:09:14 10° S
